This demonstration page uses our WeatherBlox Daily Observations layout. Learn more.

Left ArrowRight Arrow

39.51506, -84.39828

Hourly Observations for August 10, 2022

Temp ( °F °C ) Dew Point ( °F °C ) Humidity (%) Winds ( mph kmh ) Pressure ( in mb ) Visibility ( mi km ) Precip ( " mm )
12:15 am 00:15 Mostly Cloudy 73 22.6 N/A N/A N 6 9 30.07 1018 10 16 0.00 0.00
12:35 am 00:35 Cloudy 73 22.7 73 23 N/A NNE 5 7 30.08 1019 10 16 0.00 0.00
12:55 am 00:55 Cloudy 73 22.7 N/A N/A NNE 6 9 30.07 1018 10 16 0.00 0.00
1:15 am 01:15 Mostly Cloudy 73 22.5 72 22 97 97 N 5 7 30.06 1018 10 16 0.00 0.00
1:35 am 01:35 Partly Cloudy 72 22.4 N/A N/A N 5 7 30.07 1018 10 16 0.00 0.00
1:55 am 01:55 Mostly Cloudy 72 22.4 N/A N/A NNW 3 6 30.07 1018 10 16 0.00 0.00
2:15 am 02:15 Cloudy 73 22.5 N/A N/A Calm 30.07 1018 10 16 0.01 0.25
2:35 am 02:35 Cloudy 73 22.6 73 23 N/A Calm 30.07 1018 10 16 0.01 0.25
2:55 am 02:55 Cloudy 73 22.5 N/A N/A N 5 7 30.07 1018 10 16 0.01 0.25
3:15 am 03:15 Cloudy 73 22.5 N/A N/A NNW 5 7 30.07 1018 10 16 0.00 0.00
3:35 am 03:35 Cloudy 72 22.4 N/A N/A Calm 30.07 1018 10 16 0.00 0.00
3:55 am 03:55 Cloudy 72 22.3 N/A N/A Calm 30.08 1019 10 16 0.00 0.00
4:15 am 04:15 Cloudy 73 22.5 N/A N/A E 5 7 30.08 1019 10 16 0.00 0.00
4:35 am 04:35 Cloudy 73 22.6 72 22 96 96 NNE 3 6 30.08 1019 10 16 0.00 0.00
4:55 am 04:55 Cloudy 72 22.3 N/A N/A N 5 7 30.08 1019 10 16 0.00 0.00
5:15 am 05:15 Cloudy 72 22.4 N/A N/A NNW 3 6 30.08 1019 10 16 0.00 0.00
5:35 am 05:35 Cloudy 72 22.3 N/A N/A N 3 6 30.08 1019 10 16 0.00 0.00
5:55 am 05:55 Cloudy 73 22.5 N/A N/A Calm 30.08 1019 10 16 0.00 0.00
6:15 am 06:15 Cloudy 72 22.2 N/A N/A Calm 30.08 1019 10 16 0.00 0.00
6:35 am 06:35 Cloudy 72 22.1 N/A N/A Calm 30.08 1019 10 16 0.00 0.00
6:55 am 06:55 Cloudy 72 22.2 N/A N/A Calm 30.09 1019 10 16 0.00 0.00
7:15 am 07:15 Cloudy 72 22.2 N/A N/A NNW 3 6 30.10 1019 10 16 0.00 0.00
7:35 am 07:35 Cloudy 72 22.3 N/A N/A NNW 5 7 30.10 1019 10 16 0.00 0.00
7:55 am 07:55 Cloudy 73 22.5 73 22.5 100 100 NW 5 7 30.11 1020 10 16 0.00 0.00
8:15 am 08:15 Cloudy 73 22.8 73 22.6 99 99 NW 3 6 30.11 1020 10 16 0.00 0.00
8:35 am 08:35 Cloudy 74 23.1 73 22.8 98 98 Calm 30.11 1020 10 16 0.00 0.00
8:55 am 08:55 Cloudy 74 23.3 73 22.7 96 96 Calm 30.12 1020 10 16 0.00 0.00
9:15 am 09:15 Cloudy 74 23.6 73 22.8 95 95 NNW 5 7 30.12 1020 10 16 0.00 0.00
9:35 am 09:35 Cloudy 75 23.9 73 22.8 94 94 NNW 5 7 30.11 1020 10 16 0.00 0.00
9:55 am 09:55 Cloudy 76 24.4 73 22.9 91 91 W 6 9 30.11 1020 10 16 0.00 0.00
10:15 am 10:15 Cloudy 76 24.6 72 22.4 88 88 WNW 7 11 30.11 1020 10 16 0.00 0.00
10:35 am 10:35 Mostly Cloudy 78 25.4 72 22.3 83 83 W 7 11 30.12 1020 10 16 0.00 0.00
10:55 am 10:55 Mostly Cloudy 77 25.2 72 22 82 82 WNW 6 9 30.12 1020 10 16 0.00 0.00
11:15 am 11:15 Cloudy 77 25.1 72 22.4 85 85 N 8 13 30.12 1020 10 16 0.00 0.00
11:35 am 11:35 Cloudy 77 25.1 71 21.9 82 82 WNW 7 11 30.12 1020 10 16 0.00 0.00
11:55 am 11:55 Cloudy 79 26.1 71 21.7 77 77 WNW 7 11 30.13 1020 10 16 0.00 0.00
12:15 pm 12:15 Cloudy 79 26.3 70 21.1 73 73 WNW 7 11 30.13 1020 10 16 0.00 0.00
12:35 pm 12:35 Cloudy 80 26.4 72 22 77 77 NNW 6 9 30.12 1020 10 16 0.00 0.00
12:55 pm 12:55 Mostly Cloudy 79 26 70 21 74 74 NNW 9 15 30.12 1020 10 16 0.00 0.00
1:15 pm 13:15 Cloudy 77 25.2 71 21.8 81 81 NNW 10 17 30.11 1020 10 16 0.00 0.00
1:35 pm 13:35 Cloudy 78 25.4 71 21.4 79 79 NNW 8 13 30.11 1020 10 16 0.00 0.00
1:55 pm 13:55 Cloudy 79 26.3 69 20.6 71 71 N 7 11 30.10 1019 10 16 0.00 0.00
2:15 pm 14:15 Cloudy 80 26.5 70 20.9 71 71 N 5 7 30.09 1019 10 16 0.00 0.00
2:35 pm 14:35 Cloudy 80 26.4 70 21 72 72 N 7 11 30.09 1019 10 16 0.00 0.00
2:55 pm 14:55 Cloudy 78 25.8 70 20.9 74 74 NNW 6 9 30.08 1019 10 16 0.00 0.00
3:15 pm 15:15 Cloudy 77 25 71 21.4 80 80 NNW 6 9 30.08 1019 10 16 0.00 0.00
3:35 pm 15:35 Cloudy 79 26.1 71 21.7 77 77 NNW 6 9 30.07 1018 10 16 0.00 0.00
3:55 pm 15:55 Cloudy 80 26.8 70 21.3 72 72 N 8 13 30.06 1018 10 16 0.00 0.00
4:15 pm 16:15 Cloudy 80 26.5 69 20.7 71 71 NNW 9 15 30.06 1018 10 16 0.00 0.00
4:35 pm 16:35 Partly Cloudy 81 27 69 20.4 67 67 NW 8 13 30.05 1018 10 16 0.00 0.00
4:55 pm 16:55 Mostly Cloudy 80 26.5 68 20.1 68 68 NNW 7 11 30.05 1018 10 16 0.00 0.00
5:15 pm 17:15 Cloudy 80 26.9 69 20.3 67 67 NNW 7 11 30.06 1018 10 16 0.00 0.00
5:35 pm 17:35 Mostly Cloudy 81 27.3 66 19.1 61 61 NW 8 13 30.06 1018 10 16 0.00 0.00
5:55 pm 17:55 Mostly Cloudy 81 27.4 68 19.9 64 64 N 8 13 30.06 1018 10 16 0.00 0.00
6:15 pm 18:15 Partly Cloudy 81 27.1 67 19.6 64 64 NW 7 11 30.06 1018 10 16 0.00 0.00
6:35 pm 18:35 Sunny 79 26 67 19.5 67 67 NNW 7 11 30.06 1018 10 16 0.00 0.00
6:55 pm 18:55 Sunny 80 26.6 66 19 63 63 NW 7 11 30.06 1018 10 16 0.00 0.00
7:15 pm 19:15 Sunny 79 26 67 19.6 68 68 NW 6 9 30.05 1018 10 16 0.00 0.00
7:35 pm 19:35 Sunny 77 25.1 67 19.5 71 71 NW 6 9 30.06 1018 10 16 0.00 0.00
7:55 pm 19:55 Sunny 76 24.4 68 20.1 77 77 NW 6 9 30.06 1018 10 16 0.00 0.00
8:15 pm 20:15 Sunny 75 24 68 20.1 79 79 NNW 5 7 30.06 1018 10 16 0.00 0.00
8:35 pm 20:35 Sunny 74 23.2 69 20.3 84 84 NNW 5 7 30.07 1018 10 16 0.00 0.00
8:55 pm 20:55 Clear 72 22.2 69 20.7 91 91 NNW 3 6 30.07 1018 10 16 0.00 0.00
9:15 pm 21:15 Clear 72 22.1 69 20.6 91 91 Calm 30.08 1019 10 16 0.00 0.00
9:35 pm 21:35 Clear 70 21.2 70 21 99 99 Calm 30.09 1019 10 16 0.00 0.00
9:55 pm 21:55 Clear 69 20.6 N/A N/A N 3 6 30.10 1019 10 16 0.00 0.00
10:15 pm 22:15 Clear 68 20.1 N/A N/A Calm 30.11 1019 10 16 0.00 0.00
10:35 pm 22:35 Clear 67 19.6 N/A N/A Calm 30.11 1020 10 16 0.00 0.00
10:55 pm 22:55 Clear 67 19.6 N/A N/A Calm 30.11 1020 10 16 0.00 0.00
11:15 pm 23:15 Clear 68 20 68 19.9 99 99 N 5 7 30.11 1019 10 16 0.00 0.00
11:35 pm 23:35 Clear 68 19.8 68 20 N/A Calm 30.11 1020 10 16 0.00 0.00
11:55 pm 23:55 Clear 66 18.7 N/A N/A Calm 30.11 1020 10 16 0.00 0.00

Powered by AerisWeather